Regional Weather Roundup
Issued by NWS

Home | Current Version | Previous Version | Text Only | Print | Product List | Glossary Off
Versions: 1 2 3 4 5 6 7 8 9 10 11 12 13 14 15 16 17 18 19 20 21 22 23 24 25 26 27 28 29 30 31 32 33 34 35 36 37 38 39 40 41 42 43 44 45 46 47 48 49 50

000
ASUS43 KLMK 030902
RWRKY
KENTUCKY REGIONAL WEATHER ROUNDUP
NATIONAL WEATHER SERVICE LOUISVILLE KY
400 AM EST TUE MAR 03 2015

NOTE "FAIR" INDICATES FEW OR NO CLOUDS BELOW 12,000 FEET
WITH NO SIGNIFICANT WEATHER AND/OR OBSTRUCTIONS TO VISIBILITY.

KYZ001>023-026-027-061>063-070>075-031000-
WESTERN AND SOUTH CENTRAL KENTUCKY

CITY           SKY/WX    TMP DP  RH WIND       PRES   REMARKS
PADUCAH        CLOUDY    36  26  67 SE7       30.09F WCI  30
HENDERSON      CLOUDY    34  23  64 SE7       30.12F WCI  28
OWENSBORO      CLOUDY    35  25  67 SE8       30.13F WCI  28
HOPKINSVILLE   CLOUDY    39  28  64 E5        30.12F
BOWLING GREEN  CLOUDY    38  26  62 E3        30.15F
GLASGOW        NOT AVBL
$$

KYZ024-025-028>034-038-045-046-053-031000-
NORTH CENTRAL KENTUCKY

CITY           SKY/WX    TMP DP  RH WIND       PRES   REMARKS
LOUISVILLE/SDF CLOUDY    32  20  61 SE6       30.19F WCI  26
LOUISVILLE/LOU CLOUDY    32  19  58 E5        30.18F WCI  27
FORT KNOX      CLOUDY    31  20  64 E5        30.14F WCI  27
$$

KYZ035>037-039>044-047>052-055>060-089>105-031000-
NORTHEAST KENTUCKY

CITY           SKY/WX    TMP DP  RH WIND       PRES   REMARKS
LEXINGTON      CLOUDY    31  20  63 E8        30.18F WCI  23
COVINGTON      CLOUDY    27  16  63 E6        30.20F WCI  20
FRANKFORT      CLOUDY    29  19  66 E5        30.17F WCI  24
$$

KYZ054-064>069-076>088-106>120-031000-
SOUTHEAST KENTUCKY

CITY           SKY/WX    TMP DP  RH WIND       PRES   REMARKS
JACKSON        MOCLDY    30  19  63 NE3       30.16F
LONDON         MOCLDY    35  23  61 CALM      30.16F
SOMERSET       NOT AVBL
MIDDLESBORO    CLOUDY    37  32  81 CALM      30.19F
MONTICELLO     CLOUDY    37  28  70 CALM      30.18F
$$




USA.gov is the U.S. government's official web portal to all federal, state and local government web resources and services.